This is the latest recevied weather packets stored in our database for station/object KC9DRE. If no packets are shown the sender has not sent any weather packets the latest 1 day(s).
| Time | Temp. | Humidity | Pressure | Rain* | Wind** | Luminosity | Snow |
|---|---|---|---|---|---|---|---|
| 1778071261 | 8.89° C | 88% | 1012.9 hPa | 0 mm | - | 162 W/m² | - |
| 1778070657 | 8.33° C | 90% | 1012.8 hPa | 0 mm | - | 126 W/m² | - |
| 1778069143 | 7.78° C | 93% | 1012.8 hPa | 0 mm | - | 66 W/m² | - |
| 1778068538 | 7.78° C | 93% | 1012.9 hPa | 0 mm | - | 33 W/m² | - |
| 1778068236 | 7.78° C | 93% | 1012.6 hPa | 0 mm | - | 35 W/m² | - |
| 1778067933 | 7.22° C | 93% | 1012.5 hPa | 0 mm | - | 42 W/m² | - |
| 1778067329 | 7.22° C | 94% | 1012.3 hPa | 0 mm | - | 32 W/m² | - |
| 1778066420 | 6.67° C | 94% | 1011.7 hPa | 0 mm | - | 30 W/m² | - |
| 1778064603 | 6.67° C | 94% | 1011 hPa | 0 mm | - | 4 W/m² | - |
| 1778063392 | 6.67° C | 94% | 1010.9 hPa | 0 mm | - | 0 W/m² | - |
| 1778063090 | 6.67° C | 94% | 1010.8 hPa | 0 mm | - | 0 W/m² | - |
| 1778062181 | 6.67° C | 94% | 1011 hPa | 0 mm | - | 0 W/m² | - |
| 1778061577 | 6.67° C | 93% | 1010.8 hPa | 0 mm | - | 0 W/m² | - |
| 1778060670 | 6.67° C | 92% | 1010.1 hPa | 0 mm | - | 0 W/m² | - |
| 1778060367 | 6.67° C | 93% | 1010.8 hPa | 0 mm | - | 0 W/m² | - |
| 1778060065 | 6.67° C | 93% | 1010.9 hPa | 0 mm | - | 0 W/m² | - |
| 1778059460 | 6.67° C | 93% | 1010.6 hPa | 0 mm | - | 0 W/m² | - |
| 1778058855 | 6.67° C | 92% | 1010.2 hPa | 0 mm | - | 0 W/m² | - |
| 1778057946 | 7.22° C | 91% | 1009.7 hPa | 0 mm | - | 0 W/m² | - |
| 1778056732 | 7.78° C | 89% | 1009.3 hPa | 0 mm | - | 0 W/m² | - |
| 1778056127 | 8.33° C | 92% | 1009.6 hPa | 0 mm | - | 0 W/m² | - |
| 1778055519 | 8.33° C | 94% | 1009.8 hPa | 0 mm | - | 0 W/m² | - |
| 1778055218 | 8.33° C | 94% | 1009.6 hPa | 0 mm | - | 0 W/m² | - |
| 1778054915 | 8.33° C | 94% | 1009.3 hPa | 0 mm | - | 0 W/m² | - |
| 1778053098 | 8.89° C | 96% | 1008.9 hPa | 0 mm | - | 0 W/m² | - |
* Rain latest hour (hover to see other rain measurements)
** Current wind speed in m/s (hover to see current wind gust speed)